Location: Quebec
(46.8000°N, 71.2500°W)
Time: 23:49:16
(UTC-04:00)

OTV 5 (USA 277) - Pass Details

Date: 11 October 2017
Orbit: 404 x 417 km, 43.0° (Epoch: 07 September)

Event Time Altitude Azimuth Distance (km) Brightness Sun altitude
Rises 20:30:00 0° 249° (WSW) 2,351 ? -25.4°
Reaches altitude 10° 20:32:11 10° 241° (WSW) 1,489 ? -25.8°
Enters shadow 20:33:03 16° 235° (SW) 1,167 ? -25.9°
